Year,Month,Day,Hour,Minute,Value (Times are PST for temperature in C)
2008,06,09,00,00,5.80
2008,06,09,00,01,5.80
2008,06,09,00,02,5.80
2008,06,09,00,03,5.70
2008,06,09,00,04,5.70
2008,06,09,00,05,5.70
2008,06,09,00,06,5.70
2008,06,09,00,07,5.70
2008,06,09,00,08,5.70
2008,06,09,00,09,5.70
2008,06,09,00,10,5.70
2008,06,09,00,11,5.70
2008,06,09,00,12,5.70
2008,06,09,01,02,5.30
2008,06,09,01,03,5.30
2008,06,09,01,04,5.40
2008,06,09,01,05,5.40
2008,06,09,01,06,5.30
2008,06,09,01,07,5.40
2008,06,09,01,08,5.40
2008,06,09,01,09,5.40
2008,06,09,01,10,5.40
2008,06,09,01,11,5.30
2008,06,09,01,12,5.30
2008,06,09,01,13,5.30
2008,06,09,01,14,5.30
2008,06,09,01,15,5.30
2008,06,09,01,16,5.30
2008,06,09,01,17,5.30
2008,06,09,01,18,5.30
2008,06,09,01,19,5.30
2008,06,09,01,20,5.30
2008,06,09,01,21,5.20
2008,06,09,01,22,5.20
2008,06,09,01,23,5.20
2008,06,09,01,24,5.20
2008,06,09,01,25,5.20
2008,06,09,01,26,5.20
2008,06,09,01,27,5.20
2008,06,09,01,28,5.20
2008,06,09,01,29,5.20
2008,06,09,01,30,5.20
2008,06,09,01,31,5.20
2008,06,09,01,32,5.20
2008,06,09,01,33,5.20
2008,06,09,01,34,5.20
2008,06,09,01,35,5.20
2008,06,09,01,36,5.10
2008,06,09,01,37,5.10
2008,06,09,01,38,5.20
2008,06,09,01,39,5.20
2008,06,09,01,40,5.20
2008,06,09,01,41,5.20
2008,06,09,01,42,5.20
2008,06,09,01,43,5.20
2008,06,09,01,44,5.20
2008,06,09,01,45,5.20
2008,06,09,01,46,5.20
2008,06,09,01,47,5.20
2008,06,09,01,48,5.20
2008,06,09,01,49,5.20
2008,06,09,01,50,5.30
2008,06,09,01,51,5.30
2008,06,09,01,52,5.30
2008,06,09,01,53,5.30
2008,06,09,01,54,5.30
2008,06,09,01,55,5.30
2008,06,09,01,56,5.30
2008,06,09,01,57,5.30
2008,06,09,01,58,5.30
2008,06,09,01,59,5.40
2008,06,09,02,00,5.40
2008,06,09,02,01,5.40
2008,06,09,02,02,5.40
2008,06,09,02,03,5.40
2008,06,09,02,04,5.50
2008,06,09,02,05,5.50
2008,06,09,02,06,5.50
2008,06,09,02,07,5.50
2008,06,09,02,08,5.50
2008,06,09,02,09,5.50
2008,06,09,02,10,5.60
2008,06,09,02,11,5.60
2008,06,09,02,12,5.60
2008,06,09,02,13,5.60
2008,06,09,02,14,5.60
2008,06,09,02,15,5.60
2008,06,09,02,16,5.70
2008,06,09,02,17,5.70
2008,06,09,02,18,5.70
2008,06,09,02,19,5.70
2008,06,09,02,20,5.70
2008,06,09,02,21,5.70
2008,06,09,02,22,5.70
2008,06,09,02,23,5.70
2008,06,09,02,24,5.70
2008,06,09,02,25,5.70
2008,06,09,02,26,5.70
2008,06,09,02,27,5.70
2008,06,09,02,28,5.70
2008,06,09,02,29,5.60
2008,06,09,02,30,5.60
2008,06,09,02,31,5.60
2008,06,09,02,32,5.60
2008,06,09,02,33,5.60
2008,06,09,02,34,5.60
2008,06,09,02,35,5.60
2008,06,09,02,36,5.60
2008,06,09,02,37,5.60
2008,06,09,02,38,5.60
2008,06,09,02,39,5.60
2008,06,09,02,40,5.50
2008,06,09,02,41,5.50
2008,06,09,02,42,5.50
2008,06,09,02,43,5.50
2008,06,09,02,44,5.50
2008,06,09,02,45,5.50
2008,06,09,02,46,5.50
2008,06,09,02,47,5.50
2008,06,09,02,48,5.50
2008,06,09,02,49,5.50
2008,06,09,02,50,5.50
2008,06,09,02,51,5.40
2008,06,09,02,52,5.40
2008,06,09,02,53,5.40
2008,06,09,02,54,5.40
2008,06,09,02,55,5.40
2008,06,09,02,56,5.40
2008,06,09,02,57,5.50
2008,06,09,02,58,5.50
2008,06,09,02,59,5.50
2008,06,09,03,00,5.50
2008,06,09,03,01,5.50
2008,06,09,03,02,5.50
2008,06,09,03,03,5.50
2008,06,09,03,04,5.50
2008,06,09,03,05,5.50
2008,06,09,03,06,5.50
2008,06,09,03,07,5.50
2008,06,09,03,08,5.50
2008,06,09,03,09,5.50
2008,06,09,03,10,5.50
2008,06,09,03,11,5.50
2008,06,09,03,12,5.50
2008,06,09,03,13,5.50
2008,06,09,03,14,5.60
2008,06,09,03,15,5.60
2008,06,09,03,16,5.60
2008,06,09,03,17,5.60
2008,06,09,03,18,5.60
2008,06,09,03,19,5.60
2008,06,09,03,20,5.60
2008,06,09,03,21,5.60
2008,06,09,03,22,5.60
2008,06,09,03,23,5.60
2008,06,09,03,24,5.60
2008,06,09,03,25,5.60
2008,06,09,03,26,5.60
2008,06,09,03,27,5.60
2008,06,09,03,28,5.60
2008,06,09,03,29,5.60
2008,06,09,03,30,5.60
2008,06,09,03,31,5.60
2008,06,09,03,32,5.60
2008,06,09,03,33,5.60
2008,06,09,03,34,5.60
2008,06,09,03,35,5.60
2008,06,09,03,36,5.60
2008,06,09,03,37,5.60
2008,06,09,03,38,5.60
2008,06,09,03,39,5.60
2008,06,09,03,40,5.60
2008,06,09,03,41,5.60
2008,06,09,03,42,5.60
2008,06,09,03,43,5.60
2008,06,09,03,44,5.60
2008,06,09,03,45,5.60
2008,06,09,03,46,5.60
2008,06,09,03,47,5.60
2008,06,09,03,48,5.60
2008,06,09,03,49,5.60
2008,06,09,03,50,5.60
2008,06,09,03,51,5.60
2008,06,09,03,52,5.60
2008,06,09,03,53,5.60
2008,06,09,03,54,5.60
2008,06,09,03,55,5.60
2008,06,09,03,56,5.60
2008,06,09,03,57,5.60
2008,06,09,03,58,5.60
2008,06,09,03,59,5.60
2008,06,09,04,00,5.60
2008,06,09,04,01,5.60
2008,06,09,04,02,5.60
2008,06,09,04,03,5.60
2008,06,09,04,04,5.70
2008,06,09,04,05,5.70
2008,06,09,04,06,5.70
2008,06,09,04,07,5.70
2008,06,09,04,08,5.70
2008,06,09,04,09,5.70
2008,06,09,04,10,5.70
2008,06,09,04,11,5.70
2008,06,09,04,12,5.70
2008,06,09,04,13,5.70
2008,06,09,04,14,5.70
2008,06,09,04,15,5.70
2008,06,09,04,16,5.70
2008,06,09,04,17,5.70
2008,06,09,04,18,5.70
2008,06,09,04,19,5.70
2008,06,09,04,20,5.70
2008,06,09,04,21,5.70
2008,06,09,04,22,5.70
2008,06,09,04,23,5.70
2008,06,09,04,24,5.70
2008,06,09,04,25,5.70
2008,06,09,04,26,5.70
2008,06,09,04,27,5.70
2008,06,09,04,28,5.70
2008,06,09,04,29,5.70
2008,06,09,04,30,5.80
2008,06,09,04,31,5.80
2008,06,09,04,32,5.80
2008,06,09,04,33,5.80
2008,06,09,04,34,5.80
2008,06,09,04,35,5.80
2008,06,09,04,36,5.80
2008,06,09,04,37,5.80
2008,06,09,04,38,5.80
2008,06,09,04,39,5.80
2008,06,09,04,40,5.80
2008,06,09,04,41,5.80
2008,06,09,04,42,5.80
2008,06,09,04,43,5.80
2008,06,09,04,44,5.80
2008,06,09,04,45,5.80
2008,06,09,04,46,5.80
2008,06,09,04,47,5.80
2008,06,09,04,48,5.80
2008,06,09,04,49,5.80
2008,06,09,04,50,5.80
2008,06,09,04,51,5.80
2008,06,09,04,52,5.80
2008,06,09,04,53,5.80
2008,06,09,04,54,5.80
2008,06,09,04,55,5.80
2008,06,09,04,56,5.80
2008,06,09,04,57,5.80
2008,06,09,04,58,5.80
2008,06,09,04,59,5.90
2008,06,09,05,00,5.90
2008,06,09,05,01,5.90
2008,06,09,05,02,5.90
2008,06,09,05,03,5.90
2008,06,09,05,04,5.90
2008,06,09,05,05,5.90
2008,06,09,05,06,5.90
2008,06,09,05,07,5.90
2008,06,09,05,08,5.90
2008,06,09,05,09,5.90
2008,06,09,05,10,5.90
2008,06,09,05,11,5.90
2008,06,09,05,12,5.90
2008,06,09,05,13,5.90
2008,06,09,05,14,5.90
2008,06,09,05,15,5.90
2008,06,09,05,16,5.90
2008,06,09,05,17,5.90
2008,06,09,05,18,5.90
2008,06,09,05,19,5.90
2008,06,09,05,20,5.90
2008,06,09,05,21,5.90
2008,06,09,05,22,5.90
2008,06,09,05,23,5.90
2008,06,09,05,24,5.90
2008,06,09,05,25,6.00
2008,06,09,05,26,6.00
2008,06,09,05,27,6.00
2008,06,09,05,28,6.00
2008,06,09,05,29,6.00
2008,06,09,05,30,6.00
2008,06,09,05,31,6.00
2008,06,09,05,32,6.10
2008,06,09,05,33,6.10
2008,06,09,05,34,6.10
2008,06,09,05,35,6.10
2008,06,09,05,36,6.10
2008,06,09,05,37,6.10
2008,06,09,05,38,6.10
2008,06,09,05,39,6.10
2008,06,09,05,40,6.10
2008,06,09,05,41,6.10
2008,06,09,05,42,6.20
2008,06,09,05,43,6.20
2008,06,09,05,44,6.20
2008,06,09,05,45,6.20
2008,06,09,05,46,6.20
2008,06,09,05,47,6.20
2008,06,09,05,48,6.20
2008,06,09,05,49,6.20
2008,06,09,05,50,6.20
2008,06,09,05,51,6.20
2008,06,09,05,52,6.20
2008,06,09,05,53,6.20
2008,06,09,05,54,6.20
2008,06,09,05,55,6.20
2008,06,09,05,56,6.20
2008,06,09,05,57,6.30
2008,06,09,05,58,6.30
2008,06,09,05,59,6.30
2008,06,09,06,00,6.30
2008,06,09,06,01,6.30
2008,06,09,06,02,6.30
2008,06,09,06,03,6.30
2008,06,09,06,04,6.30
2008,06,09,06,05,6.30
2008,06,09,06,06,6.30
2008,06,09,06,07,6.30
2008,06,09,06,08,6.30
2008,06,09,06,09,6.30
2008,06,09,06,10,6.30
2008,06,09,06,11,6.30
2008,06,09,06,12,6.30
2008,06,09,06,13,6.30
2008,06,09,06,14,6.30
2008,06,09,06,15,6.30
2008,06,09,06,16,6.30
2008,06,09,06,17,6.40
2008,06,09,06,18,6.40
2008,06,09,06,19,6.40
2008,06,09,06,20,6.40
2008,06,09,06,21,6.40
2008,06,09,06,22,6.40
2008,06,09,06,23,6.40
2008,06,09,06,24,6.40
2008,06,09,06,25,6.40
2008,06,09,06,26,6.40
2008,06,09,06,27,6.40
2008,06,09,06,28,6.40
2008,06,09,06,29,6.40
2008,06,09,06,30,6.40
2008,06,09,06,31,6.40
2008,06,09,06,32,6.40
2008,06,09,06,33,6.40
2008,06,09,06,34,6.40
2008,06,09,06,35,6.40
2008,06,09,06,36,6.40
2008,06,09,06,37,6.40
2008,06,09,06,38,6.40
2008,06,09,06,39,6.40
2008,06,09,06,40,6.40
2008,06,09,06,41,6.40
2008,06,09,06,42,6.40
2008,06,09,06,43,6.40
2008,06,09,06,44,6.40
2008,06,09,06,45,6.40
2008,06,09,06,46,6.40
2008,06,09,06,47,6.40
2008,06,09,06,48,6.40
2008,06,09,06,49,6.40
2008,06,09,06,50,6.40
2008,06,09,06,51,6.40
2008,06,09,06,52,6.40
2008,06,09,06,53,6.40
2008,06,09,06,54,6.40
2008,06,09,06,55,6.40
2008,06,09,06,56,6.40
2008,06,09,06,57,6.40
2008,06,09,06,58,6.50
2008,06,09,06,59,6.50
2008,06,09,07,00,6.50
2008,06,09,07,01,6.50
2008,06,09,07,02,6.50
2008,06,09,07,03,6.50
2008,06,09,07,04,6.60
2008,06,09,07,05,6.60
2008,06,09,07,06,6.60
2008,06,09,07,07,6.60
2008,06,09,07,08,6.60
2008,06,09,07,09,6.70
2008,06,09,07,10,6.70
2008,06,09,07,11,6.70
2008,06,09,07,12,6.70
2008,06,09,07,13,6.70
2008,06,09,07,14,6.70
2008,06,09,07,15,6.70
2008,06,09,07,16,6.70
2008,06,09,07,17,6.70
2008,06,09,07,18,6.70
2008,06,09,07,19,6.70
2008,06,09,07,20,6.70
2008,06,09,07,21,6.70
2008,06,09,07,22,6.70
2008,06,09,07,23,6.70
2008,06,09,07,24,6.80
2008,06,09,07,25,6.80
2008,06,09,07,26,6.80
2008,06,09,07,27,6.80
2008,06,09,07,28,6.80
2008,06,09,07,29,6.80
2008,06,09,07,30,6.90
2008,06,09,07,31,6.90
2008,06,09,07,32,6.90
2008,06,09,07,33,7.00
2008,06,09,07,34,7.00
2008,06,09,07,35,7.10
2008,06,09,07,36,7.10
2008,06,09,07,37,7.10
2008,06,09,07,38,7.10
2008,06,09,07,39,7.10
2008,06,09,07,40,7.00
2008,06,09,07,41,7.00
2008,06,09,07,42,7.00
2008,06,09,07,43,7.00
2008,06,09,07,44,7.00
2008,06,09,07,45,7.00
2008,06,09,07,46,7.00
2008,06,09,07,47,7.10
2008,06,09,07,48,7.10
2008,06,09,07,49,7.10
2008,06,09,07,50,7.10
2008,06,09,07,51,7.10
2008,06,09,07,52,7.10
2008,06,09,07,53,7.10
2008,06,09,07,54,7.10
2008,06,09,07,55,7.10
2008,06,09,07,56,7.20
2008,06,09,07,57,7.20
2008,06,09,07,58,7.20
2008,06,09,07,59,7.20
2008,06,09,08,00,7.20
2008,06,09,08,01,7.20
2008,06,09,08,02,7.30
2008,06,09,08,03,7.30
2008,06,09,08,04,7.30
2008,06,09,08,05,7.30
2008,06,09,08,06,7.30
2008,06,09,08,07,7.40
2008,06,09,08,08,7.40
2008,06,09,08,09,7.40
2008,06,09,08,10,7.40
2008,06,09,08,11,7.50
2008,06,09,08,12,7.50
2008,06,09,08,13,7.60
2008,06,09,08,14,7.60
2008,06,09,08,15,7.60
2008,06,09,08,16,7.60
2008,06,09,08,17,7.70
2008,06,09,08,18,7.70
2008,06,09,08,19,7.70
2008,06,09,08,20,7.70
2008,06,09,08,21,7.70
2008,06,09,08,22,7.70
2008,06,09,08,23,7.80
2008,06,09,08,24,7.80
2008,06,09,08,25,7.80
2008,06,09,08,26,7.80
2008,06,09,08,27,7.80
2008,06,09,08,28,7.80
2008,06,09,08,29,7.80
2008,06,09,08,30,7.80
2008,06,09,08,31,7.80
2008,06,09,08,32,7.80
2008,06,09,08,33,7.70
2008,06,09,08,34,7.70
2008,06,09,08,35,7.70
2008,06,09,08,36,7.70
2008,06,09,08,37,7.80
2008,06,09,08,38,7.80
2008,06,09,08,39,7.80
2008,06,09,08,40,7.80
2008,06,09,08,41,7.80
2008,06,09,08,42,7.90
2008,06,09,08,43,7.90
2008,06,09,08,44,7.90
2008,06,09,08,45,8.00
2008,06,09,08,46,8.00
2008,06,09,08,47,8.00
2008,06,09,08,48,8.10
2008,06,09,08,49,8.10
2008,06,09,08,50,8.10
2008,06,09,08,51,8.10
2008,06,09,08,52,8.20
2008,06,09,08,53,8.20
2008,06,09,08,54,8.20
2008,06,09,08,55,8.30
2008,06,09,08,56,8.30
2008,06,09,08,57,8.30
2008,06,09,08,58,8.40
2008,06,09,08,59,8.40
2008,06,09,09,00,8.50
2008,06,09,09,01,8.50
2008,06,09,09,02,8.60
2008,06,09,09,03,8.60
2008,06,09,09,04,8.60
2008,06,09,09,05,8.60
2008,06,09,09,06,8.60
2008,06,09,09,07,8.60
2008,06,09,09,08,8.70
2008,06,09,09,09,8.70
2008,06,09,09,10,8.70
2008,06,09,09,11,8.70
2008,06,09,09,12,8.70
2008,06,09,09,13,8.70
2008,06,09,09,14,8.80
2008,06,09,09,15,8.70
2008,06,09,09,16,8.70
2008,06,09,09,17,8.70
2008,06,09,09,18,8.70
2008,06,09,09,19,8.70
2008,06,09,09,20,8.60
2008,06,09,09,21,8.60
2008,06,09,09,22,8.70
2008,06,09,09,23,8.70
2008,06,09,09,24,8.70
2008,06,09,09,25,8.70
2008,06,09,09,26,8.70
2008,06,09,09,27,8.70
2008,06,09,09,28,8.70
2008,06,09,09,29,8.70
2008,06,09,09,30,8.80
2008,06,09,09,31,8.80
2008,06,09,09,32,8.80
2008,06,09,09,33,8.70
2008,06,09,09,34,8.70
2008,06,09,09,35,8.70
2008,06,09,09,36,8.70
2008,06,09,09,37,8.70
2008,06,09,09,38,8.70
2008,06,09,09,39,8.70
2008,06,09,09,40,8.70
2008,06,09,09,41,8.60
2008,06,09,09,42,8.60
2008,06,09,09,43,8.60
2008,06,09,09,44,8.60
2008,06,09,09,45,8.60
2008,06,09,09,46,8.60
2008,06,09,09,47,8.60
2008,06,09,09,48,8.60
2008,06,09,09,49,8.60
2008,06,09,09,50,8.60
2008,06,09,09,51,8.60
2008,06,09,09,52,8.60
2008,06,09,09,53,8.60
2008,06,09,09,54,8.60
2008,06,09,09,55,8.70
2008,06,09,09,56,8.70
2008,06,09,09,57,8.70
2008,06,09,09,58,8.70
2008,06,09,09,59,8.70
2008,06,09,10,00,8.70
2008,06,09,10,01,8.70
2008,06,09,10,02,8.80
2008,06,09,10,03,8.80
2008,06,09,10,04,8.80
2008,06,09,10,05,8.80
2008,06,09,10,06,8.80
2008,06,09,10,07,8.70
2008,06,09,10,08,8.70
2008,06,09,10,09,8.70
2008,06,09,10,10,8.70
2008,06,09,10,11,8.70
2008,06,09,10,12,8.70
2008,06,09,10,13,8.70
2008,06,09,10,14,8.70
2008,06,09,10,15,8.70
2008,06,09,10,16,8.70
2008,06,09,10,17,8.70
2008,06,09,10,18,8.70
2008,06,09,10,19,8.80
2008,06,09,10,20,8.80
2008,06,09,10,21,8.70
2008,06,09,10,22,8.70
2008,06,09,10,23,8.70
2008,06,09,10,24,8.70
2008,06,09,10,25,8.70
2008,06,09,10,26,8.70
2008,06,09,10,27,8.70
2008,06,09,10,28,8.70
2008,06,09,10,29,8.70
2008,06,09,10,30,8.70
2008,06,09,10,31,8.70
2008,06,09,10,32,8.70
2008,06,09,10,33,8.70
2008,06,09,10,34,8.70
2008,06,09,10,35,8.70
2008,06,09,10,36,8.60
2008,06,09,10,37,8.60
2008,06,09,10,38,8.60
2008,06,09,10,39,8.50
2008,06,09,10,40,8.60
2008,06,09,10,41,8.60
2008,06,09,10,42,8.60
2008,06,09,10,43,8.60
2008,06,09,10,44,8.60
2008,06,09,10,45,8.60
2008,06,09,10,46,8.60
2008,06,09,10,47,8.60
2008,06,09,10,48,8.60
2008,06,09,10,49,8.60
2008,06,09,10,50,8.70
2008,06,09,10,51,8.70
2008,06,09,10,52,8.70
2008,06,09,10,53,8.80
2008,06,09,10,54,8.80
2008,06,09,10,55,8.80
2008,06,09,10,56,8.90
2008,06,09,10,57,8.90
2008,06,09,10,58,8.90
2008,06,09,10,59,8.80
2008,06,09,11,00,8.80
2008,06,09,11,01,8.80
2008,06,09,11,02,8.70
2008,06,09,11,03,8.70
2008,06,09,11,04,8.70
2008,06,09,11,05,8.80
2008,06,09,11,06,8.80
2008,06,09,11,07,8.80
2008,06,09,11,08,8.90
2008,06,09,11,09,8.90
2008,06,09,11,10,8.90
2008,06,09,11,11,8.80
2008,06,09,11,12,8.80
2008,06,09,11,13,8.80
2008,06,09,11,14,8.80
2008,06,09,11,15,8.90
2008,06,09,11,16,8.90
2008,06,09,11,17,9.00
2008,06,09,11,18,9.00
2008,06,09,11,19,9.00
2008,06,09,11,20,8.90
2008,06,09,11,21,8.90
2008,06,09,11,22,8.90
2008,06,09,11,23,8.90
2008,06,09,11,24,8.90
2008,06,09,11,25,9.00
2008,06,09,11,26,8.90
2008,06,09,11,27,8.90
2008,06,09,11,28,8.90
2008,06,09,11,29,8.90
2008,06,09,11,30,8.90
2008,06,09,11,31,8.90
2008,06,09,11,32,8.90
2008,06,09,11,33,8.90
2008,06,09,11,34,8.90
2008,06,09,11,35,9.00
2008,06,09,11,36,9.00
2008,06,09,11,37,9.00
2008,06,09,11,38,9.00
2008,06,09,11,39,9.10
2008,06,09,11,40,9.10
2008,06,09,11,41,9.10
2008,06,09,11,42,9.10
2008,06,09,11,43,9.10
2008,06,09,11,44,9.20
2008,06,09,11,45,9.20
2008,06,09,11,46,9.20
2008,06,09,11,47,9.20
2008,06,09,11,48,9.20
2008,06,09,11,49,9.10
2008,06,09,11,50,9.10
2008,06,09,11,51,9.10
2008,06,09,11,52,9.10
2008,06,09,11,53,9.10
2008,06,09,11,54,9.10
2008,06,09,11,55,9.10
2008,06,09,11,56,9.10
2008,06,09,11,57,9.10
2008,06,09,11,58,9.10
2008,06,09,11,59,9.10
2008,06,09,12,00,9.20
2008,06,09,12,01,9.20
2008,06,09,12,02,9.30
2008,06,09,12,03,9.30
2008,06,09,12,04,9.30
2008,06,09,12,05,9.30
2008,06,09,12,06,9.30
2008,06,09,12,07,9.30
2008,06,09,12,08,9.30
2008,06,09,12,09,9.30
2008,06,09,12,10,9.20
2008,06,09,12,11,9.20
2008,06,09,12,12,9.20
2008,06,09,12,13,9.10
2008,06,09,12,14,9.10
2008,06,09,12,15,9.10
2008,06,09,12,16,9.00
2008,06,09,12,17,9.00
2008,06,09,12,18,9.00
2008,06,09,12,19,9.00
2008,06,09,12,20,9.00
2008,06,09,12,21,9.00
2008,06,09,12,22,9.00
2008,06,09,12,23,9.00
2008,06,09,12,24,9.00
2008,06,09,12,25,9.00
2008,06,09,12,26,9.00
2008,06,09,12,27,9.00
2008,06,09,12,28,9.00
2008,06,09,12,29,9.00
2008,06,09,12,30,9.00
2008,06,09,12,31,9.00
2008,06,09,12,32,9.00
2008,06,09,12,33,8.90
2008,06,09,12,34,8.90
2008,06,09,12,35,8.90
2008,06,09,12,36,8.80
2008,06,09,12,37,8.80
2008,06,09,12,38,8.80
2008,06,09,12,39,8.80
2008,06,09,12,40,8.80
2008,06,09,12,41,8.70
2008,06,09,12,42,8.70
2008,06,09,12,43,8.70
2008,06,09,12,44,8.70
2008,06,09,12,45,8.70
2008,06,09,12,46,8.70
2008,06,09,12,47,8.70
2008,06,09,12,48,8.70
2008,06,09,12,49,8.70
2008,06,09,12,50,8.70
2008,06,09,12,51,8.70
2008,06,09,12,52,8.80
2008,06,09,12,53,8.80
2008,06,09,12,54,8.80
2008,06,09,12,55,8.80
2008,06,09,12,56,8.90
2008,06,09,12,57,8.90
2008,06,09,12,58,8.90
2008,06,09,12,59,8.90
2008,06,09,13,00,8.90
2008,06,09,13,01,8.90
2008,06,09,13,02,8.90
2008,06,09,13,03,9.00
2008,06,09,13,04,9.00
2008,06,09,13,05,9.00
2008,06,09,13,06,9.00
2008,06,09,13,07,9.10
2008,06,09,13,08,9.10
2008,06,09,13,09,9.10
2008,06,09,13,10,9.10
2008,06,09,13,11,9.10
2008,06,09,13,12,9.10
2008,06,09,13,13,9.10
2008,06,09,13,14,9.20
2008,06,09,13,15,9.20
2008,06,09,13,16,9.30
2008,06,09,13,17,9.30
2008,06,09,13,18,9.40
2008,06,09,13,19,9.40
2008,06,09,13,20,9.40
2008,06,09,13,21,9.50
2008,06,09,13,22,9.40
2008,06,09,13,23,9.40
2008,06,09,13,24,9.40
2008,06,09,13,25,9.40
2008,06,09,13,26,9.40
2008,06,09,13,27,9.40
2008,06,09,13,28,9.40
2008,06,09,13,29,9.40
2008,06,09,13,30,9.40
2008,06,09,13,31,9.40
2008,06,09,13,32,9.30
2008,06,09,13,33,9.40
2008,06,09,13,34,9.40
2008,06,09,13,35,9.40
2008,06,09,13,36,9.40
2008,06,09,13,37,9.30
2008,06,09,13,38,9.30
2008,06,09,13,39,9.30
2008,06,09,13,40,9.20
2008,06,09,13,41,9.20
2008,06,09,13,42,9.20
2008,06,09,13,43,9.20
2008,06,09,13,44,9.20
2008,06,09,13,45,9.20
2008,06,09,13,46,9.20
2008,06,09,13,47,9.20
2008,06,09,13,48,9.20
2008,06,09,13,49,9.20
2008,06,09,13,50,9.20
2008,06,09,13,51,9.20
2008,06,09,13,52,9.20
2008,06,09,13,53,9.30
2008,06,09,13,54,9.30
2008,06,09,13,55,9.30
2008,06,09,13,56,9.20
2008,06,09,13,57,9.20
2008,06,09,13,58,9.20
2008,06,09,13,59,9.20
2008,06,09,14,00,9.20
2008,06,09,14,01,9.20
2008,06,09,14,02,9.20
2008,06,09,14,03,9.20
2008,06,09,14,04,9.20
2008,06,09,14,05,9.20
2008,06,09,14,06,9.30
2008,06,09,14,07,9.30
2008,06,09,14,08,9.30
2008,06,09,14,09,9.30
2008,06,09,14,10,9.30
2008,06,09,14,11,9.40
2008,06,09,14,12,9.40
2008,06,09,14,13,9.40
2008,06,09,14,14,9.40
2008,06,09,14,15,9.50
2008,06,09,14,16,9.50
2008,06,09,14,17,9.50
2008,06,09,14,18,9.50
2008,06,09,14,19,9.50
2008,06,09,14,20,9.50
2008,06,09,14,21,9.50
2008,06,09,14,22,9.60
2008,06,09,14,23,9.60
2008,06,09,14,24,9.60
2008,06,09,14,25,9.60
2008,06,09,14,26,9.70
2008,06,09,14,27,9.70
2008,06,09,14,28,9.70
2008,06,09,14,29,9.70
2008,06,09,14,30,9.60
2008,06,09,14,31,9.60
2008,06,09,14,32,9.60
2008,06,09,14,33,9.60
2008,06,09,14,34,9.60
2008,06,09,14,35,9.60
2008,06,09,14,36,9.60
2008,06,09,14,37,9.60
2008,06,09,14,38,9.50
2008,06,09,14,39,9.50
2008,06,09,14,40,9.40
2008,06,09,14,41,9.40
2008,06,09,14,42,9.40
2008,06,09,14,43,9.40
2008,06,09,14,44,9.30
2008,06,09,14,45,9.30
2008,06,09,14,46,9.30
2008,06,09,14,47,9.30
2008,06,09,14,48,9.30
2008,06,09,14,49,9.30
2008,06,09,14,50,9.30
2008,06,09,14,51,9.30
2008,06,09,14,52,9.20
2008,06,09,14,53,9.20
2008,06,09,14,54,9.20
2008,06,09,14,55,9.20
2008,06,09,14,56,9.10
2008,06,09,14,57,9.10
2008,06,09,14,58,9.20
2008,06,09,14,59,9.20
2008,06,09,15,00,9.20
2008,06,09,15,01,9.20
2008,06,09,15,02,9.20
2008,06,09,15,03,9.30
2008,06,09,15,04,9.30
2008,06,09,15,05,9.30
2008,06,09,15,06,9.30
2008,06,09,15,07,9.40
2008,06,09,15,08,9.40
2008,06,09,15,09,9.40
2008,06,09,15,10,9.40
2008,06,09,15,11,9.50
2008,06,09,15,12,9.50
2008,06,09,15,13,9.40
2008,06,09,15,14,9.40
2008,06,09,15,15,9.40
2008,06,09,15,16,9.40
2008,06,09,15,17,9.40
2008,06,09,15,18,9.40
2008,06,09,15,19,9.30
2008,06,09,15,20,9.30
2008,06,09,15,21,9.30
2008,06,09,15,22,9.30
2008,06,09,15,23,9.30
2008,06,09,15,24,9.30
2008,06,09,15,25,9.30
2008,06,09,15,26,9.30
2008,06,09,15,27,9.30
2008,06,09,15,28,9.30
2008,06,09,15,29,9.20
2008,06,09,15,30,9.20
2008,06,09,15,31,9.20
2008,06,09,15,32,9.20
2008,06,09,15,33,9.20
2008,06,09,15,34,9.20
2008,06,09,15,35,9.20
2008,06,09,15,36,9.20
2008,06,09,15,37,9.20
2008,06,09,15,38,9.20
2008,06,09,15,39,9.20
2008,06,09,15,40,9.20
2008,06,09,15,41,9.20
2008,06,09,15,42,9.10
2008,06,09,15,43,9.10
2008,06,09,15,44,9.10
2008,06,09,15,45,9.10
2008,06,09,15,46,9.10
2008,06,09,15,47,9.10
2008,06,09,15,48,9.10
2008,06,09,15,49,9.10
2008,06,09,15,50,9.10
2008,06,09,15,51,9.00
2008,06,09,15,52,9.00
2008,06,09,15,53,8.90
2008,06,09,15,54,8.90
2008,06,09,15,55,8.80
2008,06,09,15,56,8.80
2008,06,09,15,57,8.70
2008,06,09,15,58,8.60
2008,06,09,15,59,8.60
2008,06,09,16,00,8.40
2008,06,09,16,01,8.40
2008,06,09,16,02,8.30
2008,06,09,16,03,8.20
2008,06,09,16,04,8.20
2008,06,09,16,05,8.10
2008,06,09,16,06,8.10
2008,06,09,16,07,8.00
2008,06,09,16,08,8.00
2008,06,09,16,09,7.90
2008,06,09,16,10,7.90
2008,06,09,16,11,7.90
2008,06,09,16,12,7.90
2008,06,09,16,13,7.90
2008,06,09,16,14,7.90
2008,06,09,16,15,7.90
2008,06,09,16,16,7.90
2008,06,09,16,17,7.90
2008,06,09,16,18,7.90
2008,06,09,16,19,7.90
2008,06,09,16,20,7.90
2008,06,09,16,21,7.90
2008,06,09,16,22,8.00
2008,06,09,16,23,8.00
2008,06,09,16,24,8.00
2008,06,09,16,25,8.00
2008,06,09,16,26,8.00
2008,06,09,16,27,8.00
2008,06,09,16,28,8.00
2008,06,09,16,29,8.00
2008,06,09,16,30,8.00
2008,06,09,16,31,8.00
2008,06,09,16,32,8.00
2008,06,09,16,33,8.00
2008,06,09,16,34,8.00
2008,06,09,16,35,8.00
2008,06,09,16,36,8.00
2008,06,09,16,37,8.00
2008,06,09,16,38,8.00
2008,06,09,16,39,8.00
2008,06,09,16,40,8.00
2008,06,09,16,41,7.90
2008,06,09,16,42,7.90
2008,06,09,16,43,7.90
2008,06,09,16,44,7.80
2008,06,09,16,45,7.70
2008,06,09,16,46,7.60
2008,06,09,16,47,7.50
2008,06,09,16,48,7.40
2008,06,09,16,49,7.40
2008,06,09,16,50,7.30
2008,06,09,16,51,7.30
2008,06,09,16,52,7.20
2008,06,09,16,53,7.20
2008,06,09,16,54,7.20
2008,06,09,16,55,7.20
2008,06,09,16,56,7.20
2008,06,09,16,57,7.20
2008,06,09,16,58,7.20
2008,06,09,16,59,7.20
2008,06,09,17,00,7.20
2008,06,09,17,01,7.20
2008,06,09,17,02,7.20
2008,06,09,17,03,7.20
2008,06,09,17,04,7.20
2008,06,09,17,05,7.20
2008,06,09,17,06,7.20
2008,06,09,17,07,7.20
2008,06,09,17,08,7.20
2008,06,09,17,09,7.20
2008,06,09,17,10,7.20
2008,06,09,17,11,7.20
2008,06,09,17,12,7.20
2008,06,09,17,13,7.20
2008,06,09,17,14,7.20
2008,06,09,17,15,7.20
2008,06,09,17,16,7.20
2008,06,09,17,17,7.20
2008,06,09,17,18,7.20
2008,06,09,17,19,7.20
2008,06,09,17,20,7.20
2008,06,09,17,21,7.20
2008,06,09,17,22,7.10
2008,06,09,17,23,7.10
2008,06,09,17,24,7.10
2008,06,09,17,25,7.10
2008,06,09,17,26,7.10
2008,06,09,17,27,7.10
2008,06,09,17,28,7.10
2008,06,09,17,29,7.10
2008,06,09,17,30,7.10
2008,06,09,17,31,7.00
2008,06,09,17,32,7.00
2008,06,09,17,33,7.00
2008,06,09,17,34,7.00
2008,06,09,17,35,7.00
2008,06,09,17,36,7.00
2008,06,09,17,37,7.00
2008,06,09,17,38,7.00
2008,06,09,17,39,7.00
2008,06,09,17,40,7.00
2008,06,09,17,41,7.00
2008,06,09,17,42,7.00
2008,06,09,17,43,7.00
2008,06,09,17,44,7.00
2008,06,09,17,45,7.00
2008,06,09,17,46,7.00
2008,06,09,17,47,7.00
2008,06,09,17,48,7.00
2008,06,09,17,49,7.00
2008,06,09,17,50,7.00
2008,06,09,17,51,7.00
2008,06,09,17,52,7.00
2008,06,09,17,53,7.00
2008,06,09,17,54,7.10
2008,06,09,17,55,7.10
2008,06,09,17,56,7.10
2008,06,09,17,57,7.10
2008,06,09,17,58,7.10
2008,06,09,17,59,7.10
2008,06,09,18,00,7.10
2008,06,09,18,01,7.10
2008,06,09,18,02,7.10
2008,06,09,18,03,7.10
2008,06,09,18,04,7.10
2008,06,09,18,05,7.10
2008,06,09,18,06,7.10
2008,06,09,18,07,7.10
2008,06,09,18,08,7.10
2008,06,09,18,09,7.10
2008,06,09,18,10,7.10
2008,06,09,18,11,7.10
2008,06,09,18,12,7.20
2008,06,09,18,13,7.20
2008,06,09,18,14,7.10
2008,06,09,18,15,7.10
2008,06,09,18,16,7.20
2008,06,09,18,17,7.20
2008,06,09,18,18,7.20
2008,06,09,18,19,7.20
2008,06,09,18,20,7.20
2008,06,09,18,21,7.20
2008,06,09,18,22,7.20
2008,06,09,18,23,7.20
2008,06,09,18,24,7.20
2008,06,09,18,25,7.20
2008,06,09,18,26,7.20
2008,06,09,18,27,7.20
2008,06,09,18,28,7.10
2008,06,09,18,29,7.10
2008,06,09,18,30,7.10
2008,06,09,18,31,7.10
2008,06,09,18,32,7.00
2008,06,09,18,33,7.00
2008,06,09,18,34,7.00
2008,06,09,18,35,7.00
2008,06,09,18,36,6.90
2008,06,09,18,37,6.90
2008,06,09,18,38,6.90
2008,06,09,18,39,6.90
2008,06,09,18,40,6.80
2008,06,09,18,41,6.80
2008,06,09,18,42,6.80
2008,06,09,18,43,6.80
2008,06,09,18,44,6.80
2008,06,09,18,45,6.80
2008,06,09,18,46,6.80
2008,06,09,18,47,6.80
2008,06,09,18,48,6.80
2008,06,09,18,49,6.80
2008,06,09,18,50,6.70
2008,06,09,18,51,6.70
2008,06,09,18,52,6.70
2008,06,09,18,53,6.70
2008,06,09,18,54,6.70
2008,06,09,18,55,6.70